Time,TemperatureF,DewpointF,PressureIn,WindDirection,WindDirectionDegrees,WindSpeedMPH,WindSpeedGustMPH,Humidity,HourlyPrecipIn,Conditions,Clouds,dailyrainin,SolarRadiationWatts/m^2,SoftwareType,DateUTC
2013-01-26 00:06:00,9.0,1.8,30.18,NW,319,2.0,10.0,72,0.00,,,0.00,0,Wunderground v.1.15,2013-01-26 06:06:00,
2013-01-26 00:16:00,9.2,2.0,30.17,NNW,334,5.0,6.0,72,0.00,,,0.00,0,Wunderground v.1.15,2013-01-26 06:16:00,
2013-01-26 00:21:00,9.2,1.7,30.17,WNW,290,5.0,5.0,71,0.00,,,0.00,0,Wunderground v.1.15,2013-01-26 06:21:00,
2013-01-26 00:31:00,9.2,1.7,30.18,NW,315,4.0,4.0,71,0.00,,,0.00,0,Wunderground v.1.15,2013-01-26 06:31:00,
2013-01-26 00:41:00,9.0,1.5,30.17,NW,317,4.0,4.0,71,0.00,,,0.00,0,Wunderground v.1.15,2013-01-26 06:41:00,
2013-01-26 00:51:00,8.8,1.3,30.18,NW,323,8.0,8.0,71,0.00,,,0.00,0,Wunderground v.1.15,2013-01-26 06:51:00,
2013-01-26 01:01:00,8.7,1.2,30.19,NNW,327,7.0,8.0,71,0.00,,,0.00,0,Wunderground v.1.15,2013-01-26 07:01:00,
2013-01-26 01:06:00,8.6,1.4,30.18,NNW,330,6.0,8.0,72,0.00,,,0.00,0,Wunderground v.1.15,2013-01-26 07:06:00,
2013-01-26 01:16:00,8.4,1.2,30.19,NNW,329,4.0,5.0,72,0.00,,,0.00,0,Wunderground v.1.15,2013-01-26 07:16:00,
2013-01-26 01:26:00,8.2,1.0,30.20,NW,307,5.0,7.0,72,0.00,,,0.00,0,Wunderground v.1.15,2013-01-26 07:26:00,
2013-01-26 01:36:00,8.1,0.9,30.19,NNW,334,6.0,6.0,72,0.00,,,0.00,0,Wunderground v.1.15,2013-01-26 07:36:00,
2013-01-26 01:41:00,8.1,0.9,30.19,NNW,328,11.0,11.0,72,0.00,,,0.00,0,Wunderground v.1.15,2013-01-26 07:41:00,
2013-01-26 01:51:00,8.0,0.8,30.20,NNW,341,7.0,7.0,72,0.00,,,0.00,0,Wunderground v.1.15,2013-01-26 07:51:00,
2013-01-26 02:01:00,7.8,0.6,30.20,NNW,347,5.0,5.0,72,0.00,,,0.00,0,Wunderground v.1.15,2013-01-26 08:01:00,
2013-01-26 02:11:00,7.6,0.5,30.20,NNW,336,8.0,8.0,72,0.00,,,0.00,0,Wunderground v.1.15,2013-01-26 08:11:00,
2013-01-26 02:21:00,7.5,0.7,30.21,NW,307,6.0,6.0,73,0.00,,,0.00,0,Wunderground v.1.15,2013-01-26 08:21:00,
2013-01-26 02:31:00,7.3,0.5,30.21,NNW,338,6.0,6.0,73,0.00,,,0.00,0,Wunderground v.1.15,2013-01-26 08:31:00,
2013-01-26 02:36:00,7.2,0.4,30.22,NNW,328,6.0,6.0,73,0.00,,,0.00,0,Wunderground v.1.15,2013-01-26 08:36:00,
2013-01-26 02:46:00,7.1,0.3,30.22,NNW,332,5.0,7.0,73,0.00,,,0.00,0,Wunderground v.1.15,2013-01-26 08:46:00,
2013-01-26 02:56:00,6.9,0.1,30.22,NNW,348,5.0,5.0,73,0.00,,,0.00,0,Wunderground v.1.15,2013-01-26 08:56:00,
2013-01-26 03:06:00,6.7,0.2,30.22,North,351,3.0,7.0,74,0.00,,,0.00,0,Wunderground v.1.15,2013-01-26 09:06:00,
2013-01-26 03:11:00,6.7,0.2,30.22,North,349,6.0,6.0,74,0.00,,,0.00,0,Wunderground v.1.15,2013-01-26 09:11:00,
2013-01-26 03:21:00,6.6,-0.2,30.22,North,354,5.0,5.0,73,0.00,,,0.00,0,Wunderground v.1.15,2013-01-26 09:21:00,
2013-01-26 03:31:00,6.4,-0.1,30.22,NNW,331,2.0,2.0,74,0.00,,,0.00,0,Wunderground v.1.15,2013-01-26 09:31:00,
2013-01-26 03:36:00,6.3,-0.2,30.22,NNW,329,5.0,5.0,74,0.00,,,0.00,0,Wunderground v.1.15,2013-01-26 09:36:00,
2013-01-26 03:46:00,6.1,-0.4,30.22,NNW,336,5.0,5.0,74,0.00,,,0.00,0,Wunderground v.1.15,2013-01-26 09:46:00,
2013-01-26 03:56:00,6.0,-0.5,30.22,NW,325,3.0,6.0,74,0.00,,,0.00,0,Wunderground v.1.15,2013-01-26 09:56:00,
2013-01-26 04:01:00,5.8,-0.4,30.21,NW,325,3.0,3.0,75,0.00,,,0.00,0,Wunderground v.1.15,2013-01-26 10:01:00,
2013-01-26 04:11:00,5.5,-0.7,30.22,NW,325,1.0,1.0,75,0.00,,,0.00,0,Wunderground v.1.15,2013-01-26 10:11:00,
2013-01-26 04:21:00,5.1,-1.1,30.22,NW,325,2.0,2.0,75,0.00,,,0.00,0,Wunderground v.1.15,2013-01-26 10:21:00,
2013-01-26 04:31:00,4.9,-1.3,30.22,NW,325,3.0,3.0,75,0.00,,,0.00,0,Wunderground v.1.15,2013-01-26 10:31:00,
2013-01-26 04:41:00,4.6,-1.6,30.22,NW,325,1.0,1.0,75,0.00,,,0.00,0,Wunderground v.1.15,2013-01-26 10:41:00,
2013-01-26 04:51:00,4.2,-1.7,30.22,NW,325,0.0,0.0,76,0.00,,,0.00,0,Wunderground v.1.15,2013-01-26 10:51:00,
2013-01-26 05:01:00,3.9,-2.0,30.23,NW,325,0.0,0.0,76,0.00,,,0.00,0,Wunderground v.1.15,2013-01-26 11:01:00,
2013-01-26 05:11:00,3.6,-2.0,30.23,NW,325,0.0,0.0,77,0.00,,,0.00,0,Wunderground v.1.15,2013-01-26 11:11:00,
2013-01-26 05:21:00,3.4,-2.2,30.23,NW,325,0.0,0.0,77,0.00,,,0.00,0,Wunderground v.1.15,2013-01-26 11:21:00,
2013-01-26 05:31:00,3.1,-2.2,30.24,NW,325,2.0,2.0,78,0.00,,,0.00,0,Wunderground v.1.15,2013-01-26 11:31:00,
2013-01-26 05:41:00,2.9,-2.4,30.24,NW,325,2.0,2.0,78,0.00,,,0.00,0,Wunderground v.1.15,2013-01-26 11:41:00,
2013-01-26 05:51:00,2.7,-2.6,30.24,WNW,291,4.0,4.0,78,0.00,,,0.00,0,Wunderground v.1.15,2013-01-26 11:51:00,
2013-01-26 06:01:00,2.7,-2.6,30.24,WNW,291,3.0,3.0,78,0.00,,,0.00,0,Wunderground v.1.15,2013-01-26 12:01:00,
2013-01-26 06:06:00,2.9,-2.1,30.24,WNW,291,4.0,4.0,79,0.00,,,0.00,0,Wunderground v.1.15,2013-01-26 12:06:00,
2013-01-26 06:16:00,3.0,-2.3,30.24,WNW,291,3.0,3.0,78,0.00,,,0.00,0,Wunderground v.1.15,2013-01-26 12:16:00,
2013-01-26 06:26:00,2.8,-2.5,30.26,WNW,291,2.0,2.0,78,0.00,,,0.00,0,Wunderground v.1.15,2013-01-26 12:26:00,
2013-01-26 06:36:00,3.0,-2.3,30.26,WNW,291,4.0,4.0,78,0.00,,,0.00,0,Wunderground v.1.15,2013-01-26 12:36:00,
2013-01-26 06:46:00,3.0,-2.6,30.26,WNW,291,3.0,3.0,77,0.00,,,0.00,0,Wunderground v.1.15,2013-01-26 12:46:00,
2013-01-26 06:56:00,2.9,-2.7,30.27,WNW,291,3.0,3.0,77,0.00,,,0.00,0,Wunderground v.1.15,2013-01-26 12:56:00,
2013-01-26 07:06:00,3.0,-2.3,30.27,WNW,291,3.0,3.0,78,0.00,,,0.00,0,Wunderground v.1.15,2013-01-26 13:06:00,
2013-01-26 07:11:00,3.1,-2.2,30.28,WNW,291,5.0,5.0,78,0.00,,,0.00,0,Wunderground v.1.15,2013-01-26 13:11:00,
2013-01-26 07:21:00,3.2,-2.1,30.28,WNW,291,3.0,3.0,78,0.00,,,0.00,0,Wunderground v.1.15,2013-01-26 13:21:00,
2013-01-26 07:31:00,3.2,-2.1,30.28,WNW,291,3.0,3.0,78,0.00,,,0.00,0,Wunderground v.1.15,2013-01-26 13:31:00,
2013-01-26 07:41:00,3.4,-1.9,30.28,WNW,291,2.0,2.0,78,0.00,,,0.00,0,Wunderground v.1.15,2013-01-26 13:41:00,
2013-01-26 07:51:00,3.6,-1.7,30.28,WNW,291,1.0,1.0,78,0.00,,,0.00,0,Wunderground v.1.15,2013-01-26 13:51:00,
2013-01-26 08:01:00,3.8,-1.5,30.29,WNW,291,2.0,2.0,78,0.00,,,0.00,0,Wunderground v.1.15,2013-01-26 14:01:00,
2013-01-26 08:06:00,4.0,-1.3,30.29,WNW,291,3.0,3.0,78,0.00,,,0.00,0,Wunderground v.1.15,2013-01-26 14:06:00,
2013-01-26 08:16:00,4.6,-1.3,30.29,WNW,291,2.0,3.0,76,0.00,,,0.00,0,Wunderground v.1.15,2013-01-26 14:16:00,
2013-01-26 08:26:00,5.2,-0.4,30.29,WNW,291,0.0,0.0,77,0.00,,,0.00,0,Wunderground v.1.15,2013-01-26 14:26:00,
2013-01-26 08:31:00,5.7,-0.2,30.29,WNW,291,3.0,3.0,76,0.00,,,0.00,0,Wunderground v.1.15,2013-01-26 14:31:00,
2013-01-26 08:41:00,6.3,0.1,30.30,WNW,291,2.0,2.0,75,0.00,,,0.00,0,Wunderground v.1.15,2013-01-26 14:41:00,
2013-01-26 08:51:00,6.7,0.2,30.30,WNW,291,3.0,3.0,74,0.00,,,0.00,0,Wunderground v.1.15,2013-01-26 14:51:00,
2013-01-26 09:01:00,7.2,0.7,30.31,WNW,291,3.0,3.0,74,0.00,,,0.00,0,Wunderground v.1.15,2013-01-26 15:01:00,
2013-01-26 09:06:00,7.6,1.0,30.31,NW,309,5.0,5.0,74,0.00,,,0.00,0,Wunderground v.1.15,2013-01-26 15:06:00,
2013-01-26 09:16:00,8.0,1.1,30.30,WNW,302,3.0,3.0,73,0.00,,,0.00,0,Wunderground v.1.15,2013-01-26 15:16:00,
2013-01-26 09:26:00,8.4,1.2,30.32,WNW,302,1.0,3.0,72,0.00,,,0.00,0,Wunderground v.1.15,2013-01-26 15:26:00,
2013-01-26 09:36:00,9.0,1.8,30.32,WNW,302,0.0,1.0,72,0.00,,,0.00,0,Wunderground v.1.15,2013-01-26 15:36:00,
2013-01-26 09:46:00,9.6,2.1,30.32,WNW,302,1.0,3.0,71,0.00,,,0.00,0,Wunderground v.1.15,2013-01-26 15:46:00,
2013-01-26 09:56:00,10.3,2.4,30.31,WNW,302,2.0,2.0,70,0.00,,,0.00,0,Wunderground v.1.15,2013-01-26 15:56:00,
2013-01-26 10:06:00,10.9,2.7,30.31,WNW,302,0.0,4.0,69,0.00,,,0.00,0,Wunderground v.1.15,2013-01-26 16:06:00,
2013-01-26 10:16:00,11.3,2.5,30.32,WNW,303,1.0,2.0,67,0.00,,,0.00,0,Wunderground v.1.15,2013-01-26 16:16:00,
2013-01-26 10:21:00,11.4,2.6,30.32,WNW,302,0.0,0.0,67,0.00,,,0.00,0,Wunderground v.1.15,2013-01-26 16:21:00,
2013-01-26 10:31:00,11.8,2.6,30.32,NW,304,0.0,0.0,66,0.00,,,0.00,0,Wunderground v.1.15,2013-01-26 16:31:00,
2013-01-26 10:41:00,12.3,3.1,30.31,WNW,303,2.0,2.0,66,0.00,,,0.00,0,Wunderground v.1.15,2013-01-26 16:41:00,
2013-01-26 10:51:00,13.0,3.8,30.32,NW,304,4.0,4.0,66,0.00,,,0.00,0,Wunderground v.1.15,2013-01-26 16:51:00,
2013-01-26 11:01:00,13.5,4.2,30.32,WNW,303,3.0,4.0,66,0.00,,,0.00,0,Wunderground v.1.15,2013-01-26 17:01:00,
2013-01-26 11:06:00,13.8,4.5,30.31,WNW,302,4.0,4.0,66,0.00,,,0.00,0,Wunderground v.1.15,2013-01-26 17:06:00,
2013-01-26 11:16:00,14.2,4.6,30.31,WNW,288,2.0,4.0,65,0.00,,,0.00,0,Wunderground v.1.15,2013-01-26 17:16:00,
2013-01-26 11:26:00,14.9,5.2,30.31,WNW,298,0.0,1.0,65,0.00,,,0.00,0,Wunderground v.1.15,2013-01-26 17:26:00,
2013-01-26 11:36:00,15.6,5.6,30.32,WNW,298,2.0,2.0,64,0.00,,,0.00,0,Wunderground v.1.15,2013-01-26 17:36:00,
2013-01-26 11:46:00,16.7,6.3,30.31,WNW,298,0.0,3.0,63,0.00,,,0.00,0,Wunderground v.1.15,2013-01-26 17:46:00,
2013-01-26 11:56:00,16.8,5.7,30.30,WNW,297,1.0,1.0,61,0.00,,,0.00,0,Wunderground v.1.15,2013-01-26 17:56:00,
2013-01-26 12:01:00,16.9,5.8,30.30,WNW,297,0.0,0.0,61,0.00,,,0.00,0,Wunderground v.1.15,2013-01-26 18:01:00,
2013-01-26 12:11:00,17.4,6.2,30.29,WNW,297,0.0,0.0,61,0.00,,,0.00,0,Wunderground v.1.15,2013-01-26 18:11:00,
2013-01-26 12:21:00,18.4,6.4,30.30,South,183,0.0,0.0,59,0.00,,,0.00,0,Wunderground v.1.15,2013-01-26 18:21:00,
2013-01-26 12:31:00,19.3,6.9,30.29,WSW,244,1.0,1.0,58,0.00,,,0.00,0,Wunderground v.1.15,2013-01-26 18:31:00,
2013-01-26 12:36:00,19.7,6.9,30.28,WSW,246,0.0,1.0,57,0.00,,,0.00,0,Wunderground v.1.15,2013-01-26 18:36:00,
2013-01-26 12:46:00,20.7,7.9,30.29,SSW,205,4.0,4.0,57,0.00,,,0.00,0,Wunderground v.1.15,2013-01-26 18:46:00,
2013-01-26 12:56:00,21.9,9.7,30.28,South,177,2.0,2.0,59,0.00,,,0.00,0,Wunderground v.1.15,2013-01-26 18:56:00,
2013-01-26 13:06:00,22.9,11.1,30.27,SE,145,6.0,6.0,60,0.00,,,0.00,0,Wunderground v.1.15,2013-01-26 19:06:00,
2013-01-26 13:16:00,23.2,10.6,30.28,SE,145,4.0,5.0,58,0.00,,,0.00,0,Wunderground v.1.15,2013-01-26 19:16:00,
2013-01-26 13:26:00,23.5,11.3,30.28,SE,130,3.0,7.0,59,0.00,,,0.00,0,Wunderground v.1.15,2013-01-26 19:26:00,
2013-01-26 13:36:00,24.0,11.3,30.27,SSE,155,12.0,12.0,58,0.00,,,0.00,0,Wunderground v.1.15,2013-01-26 19:36:00,
2013-01-26 13:46:00,23.3,10.7,30.26,ESE,120,2.0,2.0,58,0.00,,,0.00,0,Wunderground v.1.15,2013-01-26 19:46:00,
2013-01-26 13:56:00,23.1,10.9,30.27,SE,126,3.0,4.0,59,0.00,,,0.00,0,Wunderground v.1.15,2013-01-26 19:56:00,
2013-01-26 14:01:00,23.6,10.6,30.26,South,177,4.0,5.0,57,0.00,,,0.00,0,Wunderground v.1.15,2013-01-26 20:01:00,
2013-01-26 14:11:00,24.1,11.4,30.28,SSE,148,2.0,2.0,58,0.00,,,0.00,0,Wunderground v.1.15,2013-01-26 20:11:00,
2013-01-26 14:16:00,24.3,10.8,30.28,SE,141,3.0,3.0,56,0.00,,,0.00,0,Wunderground v.1.15,2013-01-26 20:16:00,
2013-01-26 14:26:00,24.8,11.3,30.26,SE,146,5.0,5.0,56,0.00,,,0.00,0,Wunderground v.1.15,2013-01-26 20:26:00,
2013-01-26 14:36:00,25.0,11.9,30.26,SE,139,7.0,7.0,57,0.00,,,0.00,0,Wunderground v.1.15,2013-01-26 20:36:00,
2013-01-26 14:46:00,25.5,12.0,30.27,South,170,5.0,5.0,56,0.00,,,0.00,0,Wunderground v.1.15,2013-01-26 20:46:00,
2013-01-26 14:56:00,25.3,11.4,30.27,SSE,159,3.0,6.0,55,0.00,,,0.00,0,Wunderground v.1.15,2013-01-26 20:56:00,
2013-01-26 15:01:00,24.7,10.8,30.27,SSW,197,3.0,3.0,55,0.00,,,0.00,0,Wunderground v.1.15,2013-01-26 21:01:00,
2013-01-26 15:11:00,23.8,10.8,30.26,SSE,148,6.0,6.0,57,0.00,,,0.00,0,Wunderground v.1.15,2013-01-26 21:11:00,
2013-01-26 15:21:00,23.7,11.1,30.25,SSE,147,5.0,5.0,58,0.00,,,0.00,0,Wunderground v.1.15,2013-01-26 21:21:00,
2013-01-26 15:31:00,23.8,11.2,30.25,South,181,4.0,4.0,58,0.00,,,0.00,0,Wunderground v.1.15,2013-01-26 21:31:00,
2013-01-26 15:36:00,23.5,10.9,30.25,SSE,156,9.0,9.0,58,0.00,,,0.00,0,Wunderground v.1.15,2013-01-26 21:36:00,
2013-01-26 15:46:00,22.7,10.5,30.25,SE,145,2.0,5.0,59,0.00,,,0.00,0,Wunderground v.1.15,2013-01-26 21:46:00,
2013-01-26 15:56:00,22.1,10.3,30.24,SSE,164,4.0,4.0,60,0.00,,,0.00,0,Wunderground v.1.15,2013-01-26 21:56:00,
2013-01-26 16:06:00,22.1,10.3,30.25,South,180,4.0,4.0,60,0.00,,,0.00,0,Wunderground v.1.15,2013-01-26 22:06:00,
2013-01-26 16:16:00,22.2,10.0,30.25,South,172,4.0,6.0,59,0.00,,,0.00,0,Wunderground v.1.15,2013-01-26 22:16:00,
2013-01-26 16:26:00,22.2,10.0,30.24,SSE,168,6.0,6.0,59,0.00,,,0.00,0,Wunderground v.1.15,2013-01-26 22:26:00,
2013-01-26 16:31:00,22.1,10.3,30.24,SSE,152,3.0,3.0,60,0.00,,,0.00,0,Wunderground v.1.15,2013-01-26 22:31:00,
2013-01-26 16:41:00,21.8,9.7,30.24,South,170,6.0,6.0,59,0.00,,,0.00,0,Wunderground v.1.15,2013-01-26 22:41:00,
2013-01-26 16:51:00,21.8,9.7,30.23,South,179,6.0,6.0,59,0.00,,,0.00,0,Wunderground v.1.15,2013-01-26 22:51:00,
2013-01-26 17:01:00,21.7,9.2,30.23,South,170,2.0,2.0,58,0.00,,,0.00,0,Wunderground v.1.15,2013-01-26 23:01:00,
2013-01-26 17:06:00,21.7,9.9,30.23,South,169,3.0,3.0,60,0.00,,,0.00,0,Wunderground v.1.15,2013-01-26 23:06:00,
2013-01-26 17:16:00,21.9,10.1,30.23,SE,146,5.0,6.0,60,0.00,,,0.00,0,Wunderground v.1.15,2013-01-26 23:16:00,
2013-01-26 17:26:00,22.0,9.8,30.23,SSE,148,5.0,5.0,59,0.00,,,0.00,0,Wunderground v.1.15,2013-01-26 23:26:00,
2013-01-26 17:36:00,21.9,9.7,30.25,SSE,159,2.0,4.0,59,0.00,,,0.00,0,Wunderground v.1.15,2013-01-26 23:36:00,
2013-01-26 17:46:00,21.9,9.7,30.24,SSE,166,4.0,6.0,59,0.00,,,0.00,0,Wunderground v.1.15,2013-01-26 23:46:00,
2013-01-26 17:51:00,22.0,10.2,30.25,SSE,165,5.0,5.0,60,0.00,,,0.00,0,Wunderground v.1.15,2013-01-26 23:51:00,
2013-01-26 18:01:00,22.0,10.2,30.24,SE,142,6.0,6.0,60,0.00,,,0.00,0,Wunderground v.1.15,2013-01-27 00:01:00,
2013-01-26 18:11:00,22.1,10.3,30.25,SE,145,5.0,5.0,60,0.00,,,0.00,0,Wunderground v.1.15,2013-01-27 00:11:00,
2013-01-26 18:21:00,22.0,10.6,30.24,SSE,147,4.0,4.0,61,0.00,,,0.00,0,Wunderground v.1.15,2013-01-27 00:21:00,
2013-01-26 18:31:00,22.1,10.7,30.22,SE,129,2.0,2.0,61,0.00,,,0.00,0,Wunderground v.1.15,2013-01-27 00:31:00,
2013-01-26 18:36:00,22.2,10.8,30.22,SE,125,5.0,5.0,61,0.00,,,0.00,0,Wunderground v.1.15,2013-01-27 00:36:00,
2013-01-26 18:46:00,22.2,10.4,30.22,SE,145,5.0,5.0,60,0.00,,,0.00,0,Wunderground v.1.15,2013-01-27 00:46:00,
2013-01-26 18:56:00,22.1,10.3,30.24,SE,143,5.0,6.0,60,0.00,,,0.00,0,Wunderground v.1.15,2013-01-27 00:56:00,
2013-01-26 19:06:00,22.3,10.5,30.25,SSE,147,6.0,6.0,60,0.00,,,0.00,0,Wunderground v.1.15,2013-01-27 01:06:00,
2013-01-26 19:11:00,22.3,10.5,30.23,SE,141,5.0,5.0,60,0.00,,,0.00,0,Wunderground v.1.15,2013-01-27 01:11:00,
2013-01-26 19:21:00,22.3,10.1,30.24,SE,143,8.0,8.0,59,0.00,,,0.00,0,Wunderground v.1.15,2013-01-27 01:21:00,
2013-01-26 19:31:00,22.3,10.5,30.23,SSE,154,2.0,2.0,60,0.00,,,0.00,0,Wunderground v.1.15,2013-01-27 01:31:00,
2013-01-26 19:41:00,22.2,10.4,30.23,SSE,162,12.0,12.0,60,0.00,,,0.00,0,Wunderground v.1.15,2013-01-27 01:41:00,
2013-01-26 19:51:00,22.2,11.1,30.22,SE,138,5.0,5.0,62,0.00,,,0.00,0,Wunderground v.1.15,2013-01-27 01:51:00,
2013-01-26 20:01:00,22.1,10.7,30.23,SE,138,6.0,6.0,61,0.00,,,0.00,0,Wunderground v.1.15,2013-01-27 02:01:00,
2013-01-26 20:06:00,22.0,10.6,30.23,SE,145,9.0,9.0,61,0.00,,,0.00,0,Wunderground v.1.15,2013-01-27 02:06:00,
2013-01-26 20:16:00,22.0,10.6,30.22,SSE,147,6.0,10.0,61,0.00,,,0.00,0,Wunderground v.1.15,2013-01-27 02:16:00,
2013-01-26 20:26:00,21.9,10.9,30.22,SE,138,11.0,11.0,62,0.00,,,0.00,0,Wunderground v.1.15,2013-01-27 02:26:00,
2013-01-26 20:36:00,22.0,11.0,30.24,SSE,157,5.0,5.0,62,0.00,,,0.00,0,Wunderground v.1.15,2013-01-27 02:36:00,
2013-01-26 20:46:00,21.9,10.9,30.22,SSE,149,6.0,8.0,62,0.00,,,0.00,0,Wunderground v.1.15,2013-01-27 02:46:00,
2013-01-26 20:56:00,22.0,11.3,30.22,SE,146,6.0,6.0,63,0.00,,,0.00,0,Wunderground v.1.15,2013-01-27 02:56:00,
2013-01-26 21:06:00,22.2,11.5,30.22,SE,137,6.0,12.0,63,0.00,,,0.00,0,Wunderground v.1.15,2013-01-27 03:06:00,
2013-01-26 21:16:00,22.2,11.5,30.22,SSE,148,4.0,4.0,63,0.00,,,0.00,0,Wunderground v.1.15,2013-01-27 03:16:00,
2013-01-26 21:21:00,22.3,11.6,30.22,SSE,149,10.0,10.0,63,0.00,,,0.00,0,Wunderground v.1.15,2013-01-27 03:21:00,
2013-01-26 21:31:00,22.3,11.6,30.22,SSE,151,10.0,10.0,63,0.00,,,0.00,0,Wunderground v.1.15,2013-01-27 03:31:00,
2013-01-26 21:41:00,22.2,11.5,30.22,SE,129,7.0,7.0,63,0.00,,,0.00,0,Wunderground v.1.15,2013-01-27 03:41:00,
2013-01-26 21:51:00,22.3,12.0,30.20,SSE,151,10.0,10.0,64,0.00,,,0.00,0,Wunderground v.1.15,2013-01-27 03:51:00,
2013-01-26 22:01:00,22.2,11.9,30.21,SSE,164,11.0,11.0,64,0.00,,,0.00,0,Wunderground v.1.15,2013-01-27 04:01:00,
2013-01-26 22:06:00,22.2,11.9,30.21,SSE,164,5.0,11.0,64,0.00,,,0.00,0,Wunderground v.1.15,2013-01-27 04:06:00,
2013-01-26 22:16:00,22.2,11.9,30.21,SE,144,7.0,7.0,64,0.00,,,0.00,0,Wunderground v.1.15,2013-01-27 04:16:00,
2013-01-26 22:21:00,22.3,12.0,30.21,SSE,157,5.0,5.0,64,0.00,,,0.00,0,Wunderground v.1.15,2013-01-27 04:21:00,
2013-01-26 22:31:00,22.5,12.1,30.20,SSE,161,9.0,9.0,64,0.00,,,0.00,0,Wunderground v.1.15,2013-01-27 04:31:00,
2013-01-26 22:41:00,22.5,12.1,30.21,SSE,166,6.0,6.0,64,0.00,,,0.00,0,Wunderground v.1.15,2013-01-27 04:41:00,
2013-01-26 22:51:00,22.3,12.0,30.21,SSE,163,7.0,7.0,64,0.00,,,0.00,0,Wunderground v.1.15,2013-01-27 04:51:00,
2013-01-26 23:01:00,22.4,12.1,30.19,SSE,168,9.0,15.0,64,0.00,,,0.00,0,Wunderground v.1.15,2013-01-27 05:01:00,
2013-01-26 23:06:00,22.5,12.1,30.20,South,172,9.0,15.0,64,0.00,,,0.00,0,Wunderground v.1.15,2013-01-27 05:06:00,
2013-01-26 23:11:00,22.6,12.2,30.20,South,169,9.0,9.0,64,0.00,,,0.00,0,Wunderground v.1.15,2013-01-27 05:11:00,
2013-01-26 23:16:00,22.7,12.3,30.20,South,170,6.0,9.0,64,0.00,,,0.00,0,Wunderground v.1.15,2013-01-27 05:16:00,
2013-01-26 23:26:00,22.8,12.4,30.20,SSE,152,8.0,11.0,64,0.00,,,0.00,0,Wunderground v.1.15,2013-01-27 05:26:00,
2013-01-26 23:36:00,22.9,12.5,30.20,SSE,148,6.0,8.0,64,0.00,,,0.00,0,Wunderground v.1.15,2013-01-27 05:36:00,
2013-01-26 23:46:00,22.9,12.9,30.21,SSE,161,6.0,9.0,65,0.00,,,0.00,0,Wunderground v.1.15,2013-01-27 05:46:00,
2013-01-26 23:56:00,22.9,12.9,30.20,SSE,156,9.0,9.0,65,0.00,,,0.00,0,Wunderground v.1.15,2013-01-27 05:56:00,